FW1564 Weather Reports


Display with metric or nautical units.
time (UTC)temp
F
wind
direction
speed
MPH
gust
MPH
rain 1hr
in
rain 24hr
in
rain mn
in
humidity
%
barometer
mb
20260509002348 56 288 0.0 4.0 0.00 0.90 0.00 73 1008.8
20260509000856 56 319 2.0 6.0 0.00 0.90 0.00 71 1008.8
20260508235420 55 302 0.0 3.0 0.00 0.90 0.00 73 1009.0
20260508234418 56 201 0.0 7.0 0.00 0.90 0.00 71 1008.9
20260508233420 57 12 4.0 8.0 0.00 0.91 0.00 71 1009.0
20260508232421 57 296 4.0 8.0 0.00 0.95 0.00 70 1008.9
20260508231432 56 323 2.0 9.0 0.00 1.00 0.00 71 1009.0
20260508230420 57 258 1.0 10.0 0.00 1.00 0.00 71 1009.1
20260508225421 57 318 1.0 17.0 0.00 1.00 1.00 71 1009.0
20260508224420 57 346 3.0 10.0 0.00 1.00 1.00 71 1008.5
20260508223421 56 338 8.0 11.0 0.00 1.00 1.00 72 1008.5
20260508222420 56 3 9.0 14.0 0.00 1.00 1.00 71 1008.2
20260508221421 56 116 2.0 4.0 0.00 1.00 1.00 74 1008.2
20260508220421 57 318 1.0 7.0 0.00 1.00 1.00 73 1008.3
20260508215420 57 217 2.0 7.0 0.00 1.00 1.00 71 1008.2
20260508214419 56 116 2.0 7.0 0.00 1.00 1.00 72 1008.3
20260508213420 57 355 1.0 6.0 0.00 1.00 1.00 72 1008.1
20260508212421 57 78 3.0 10.0 0.00 1.00 1.00 69 1007.9
20260508211421 56 228 0.0 8.0 0.00 1.00 1.00 76 1007.8
20260508210420 56 308 1.0 4.0 0.00 1.00 1.00 75 1007.6
20260508205419 56 337 2.0 8.0 0.00 1.00 1.00 75 1007.2
20260508204420 56 223 0.0 6.0 0.00 1.00 1.00 77 1007.0
20260508203420 56 308 0.0 4.0 0.00 1.00 1.00 79 1006.8
20260508202418 55 332 1.0 7.0 0.00 1.00 1.00 80 1006.9
20260508201419 56 14 4.0 9.0 0.00 1.00 1.00 79 1006.9
20260508200907 56 341 3.0 6.0 0.00 1.00 1.00 79 1006.8
20260508195420 56 4 2.0 11.0 0.00 1.00 1.00 79 1006.3
20260508194912 56 350 3.0 7.0 0.00 1.00 1.00 80 1006.4
20260508193421 56 333 8.0 10.0 0.00 1.00 1.00 80 1006.3
20260508192420 56 347 4.0 11.0 0.01 1.00 1.00 81 1006.3
20260508191859 55 310 2.0 11.0 0.04 1.00 1.00 81 1006.3
20260508190422 55 347 2.0 9.0 0.06 1.00 1.00 82 1006.3
20260508185419 55 322 3.0 10.0 0.06 1.00 1.00 85 1006.2
20260508184420 55 71 2.0 8.0 0.06 1.00 1.00 87 1006.4
20260508183405 55 328 2.0 10.0 0.06 1.00 1.00 90 1006.5
20260508182405 55 79 2.0 4.0 0.03 0.97 0.98 89 1006.4
20260508181406 55 319 4.0 7.0 0.02 0.96 0.96 88 1006.5
20260508180406 56 341 2.0 10.0 0.00 0.94 0.94 84 1006.4
20260508175406 57 67 4.0 18.0 0.00 0.94 0.94 78 1006.3
20260508174406 57 340 2.0 13.0 0.00 0.94 0.94 76 1006.4
20260508173406 57 38 2.0 8.0 0.00 0.94 0.94 75 1006.3
20260508172844 57 92 1.0 11.0 0.00 0.94 0.94 73 1006.5
20260508171407 58 349 4.0 13.0 0.00 0.94 0.94 74 1006.5
20260508170406 57 317 5.0 15.0 0.00 0.94 0.94 74 1006.5
20260508165406 57 20 5.0 16.0 0.00 0.94 0.94 74 1006.4
20260508164406 58 320 2.0 8.0 0.00 0.94 0.94 73 1006.4
20260508163406 58 344 2.0 15.0 0.00 0.94 0.94 72 1006.5
20260508162406 59 20 9.0 13.0 0.00 0.94 0.94 66 1006.2
20260508161407 59 356 6.0 16.0 0.00 0.94 0.94 65 1006.1
20260508160406 60 241 3.0 14.0 0.00 0.94 0.94 68 1006.1
20260508155406 59 278 3.0 11.0 0.00 0.94 0.94 71 1005.8
20260508154844 59 325 4.0 16.0 0.00 0.94 0.94 68 1006.3
20260508153406 60 74 5.0 10.0 0.00 0.94 0.94 68 1006.4
20260508152406 60 327 1.0 13.0 0.00 0.94 0.94 71 1006.4
20260508151407 61 160 4.0 17.0 0.00 0.94 0.94 68 1006.3
20260508150406 62 359 3.0 11.0 0.00 0.94 0.94 67 1006.3
20260508145406 61 74 4.0 18.0 0.00 0.94 0.94 70 1006.1
20260508144406 62 226 2.0 15.0 0.00 0.94 0.94 68 1006.5
20260508144332 61 30 2.0 11.0 0.00 0.94 0.94 69 1006.4
20260508142407 62 31 2.0 10.0 0.00 0.94 0.94 66 1006.4
20260508141419 62 350 3.0 13.0 0.00 0.94 0.94 67 1006.5
20260508140406 62 115 9.0 11.0 0.00 0.94 0.94 65 1006.5
20260508135406 62 103 3.0 8.0 0.00 0.94 0.94 67 1006.8
20260508134406 61 302 3.0 13.0 0.00 0.94 0.94 69 1006.8
20260508133406 59 333 4.0 14.0 0.00 0.94 0.94 73 1006.8
20260508132405 60 252 2.0 10.0 0.00 0.94 0.94 73 1006.7
20260508131406 60 115 1.0 13.0 0.00 0.94 0.94 73 1006.8
20260508130406 61 27 4.0 11.0 0.00 0.94 0.94 70 1007.1
20260508125407 60 12 0.0 10.0 0.00 0.94 0.94 73 1007.1
20260508124406 62 189 1.0 9.0 0.00 0.94 0.94 70 1006.8
20260508123406 62 343 3.0 8.0 0.00 0.94 0.94 69 1006.9
20260508122406 61 14 3.0 13.0 0.00 0.94 0.94 71 1006.9
20260508122322 61 126 5.0 10.0 0.00 0.94 0.94 73 1007.1
20260508120407 62 321 2.0 7.0 0.00 0.94 0.94 74 1007.0
20260508115845 61 260 1.0 11.0 0.00 0.94 0.94 75 1007.2
20260508114406 60 256 4.0 8.0 0.00 0.94 0.94 78 1007.1
20260508113406 59 284 1.0 7.0 0.00 0.94 0.94 80 1007.2
20260508112406 59 147 1.0 6.0 0.00 0.94 0.94 77 1007.3
20260508111843 58 231 2.0 6.0 0.00 0.94 0.94 80 1007.3
20260508110419 57 286 1.0 14.0 0.00 0.94 0.94 81 1007.4
20260508105406 59 0 0.0 7.0 0.00 0.94 0.94 82 1007.5
20260508104406 60 129 1.0 8.0 0.00 0.94 0.94 79 1007.5
20260508103405 59 285 0.0 11.0 0.00 0.94 0.94 79 1007.4
20260508102406 60 177 9.0 13.0 0.00 0.94 0.94 75 1007.0
20260508101406 60 194 2.0 9.0 0.00 0.94 0.94 76 1007.1
20260508100406 59 259 1.0 9.0 0.00 0.94 0.94 78 1007.0
20260508095848 57 307 1.0 14.0 0.00 0.94 0.94 78 1007.3
20260508094406 59 271 5.0 10.0 0.02 0.94 0.94 73 1007.2
20260508093407 58 354 5.0 17.0 0.03 0.94 0.94 75 1006.9
20260508092406 57 55 3.0 8.0 0.06 0.94 0.94 79 1007.0
20260508091408 55 334 1.0 11.0 0.09 0.94 0.94 83 1006.9
20260508090406 54 351 3.0 7.0 0.15 0.94 0.94 88 1007.2
20260508085406 53 338 5.0 9.0 0.15 0.94 0.94 87 1007.5
20260508084405 53 337 4.0 14.0 0.13 0.92 0.92 87 1007.2
20260508083406 53 8 4.0 10.0 0.12 0.91 0.91 86 1007.3
20260508082753 59 42 0.0 4.0 0.06 0.85 0.85 76 1007.1
20260508082429 55 48 2.0 7.0 0.09 0.88 0.89 84 1007.2
20260508080354 58 238 1.0 7.0 0.00 0.79 0.79 75 1006.8
20260508075357 57 100 1.0 7.0 0.00 0.79 0.79 77 1006.4
20260508074354 57 206 3.0 6.0 0.00 0.79 0.79 75 1006.7
20260508073355 56 17 4.0 7.0 0.00 0.79 0.79 76 1006.7
20260508072354 55 229 2.0 8.0 0.00 0.79 0.79 76 1006.1
20260508071836 54 1 1.0 10.0 0.00 0.79 0.79 77 1006.1
20260508070354 53 322 3.0 9.0 0.00 0.79 0.79 78 1006.3
20260508065831 54 307 2.0 10.0 0.00 0.79 0.79 75 1006.2
20260508064354 54 9 4.0 10.0 0.00 0.79 0.79 76 1006.0
20260508063354 53 341 4.0 9.0 0.00 0.79 0.79 76 1006.0
20260508062354 53 289 3.0 11.0 0.00 0.79 0.79 73 1006.0
20260508061354 53 260 3.0 9.0 0.02 0.79 0.79 72 1005.8
20260508060353 53 246 2.0 10.0 0.02 0.79 0.79 74 1006.1
20260508055354 53 315 3.0 9.0 0.07 0.79 0.79 76 1005.9
20260508054345 53 359 5.0 15.0 0.09 0.79 0.79 81 1006.1
20260508054259 52 31 8.0 14.0 0.09 0.79 0.79 93 1005.9
20260508052342 52 19 4.0 10.0 0.09 0.79 0.79 96 1006.3
20260508051342 53 32 4.0 14.0 0.07 0.77 0.77 97 1006.5
20260508050343 54 333 4.0 9.0 0.08 0.77 0.77 97 1006.4
20260508045342 54 39 0.0 6.0 0.04 0.72 0.72 97 1006.2
20260508044344 54 53 3.0 4.0 0.06 0.70 0.70 97 1006.4
20260508043342 55 123 3.0 7.0 0.10 0.70 0.70 97 1006.3
20260508042342 55 159 2.0 7.0 0.17 0.70 0.70 97 1006.4
20260508041342 55 346 1.0 7.0 0.18 0.70 0.70 97 1006.8
20260508040342 55 160 3.0 7.0 0.17 0.69 0.69 97 1006.9
20260508035342 55 91 5.0 8.0 0.17 0.68 0.68 97 1006.9
20260508034342 55 256 3.0 14.0 0.14 0.64 0.64 97 1007.1
20260508033343 55 351 2.0 10.0 0.10 0.60 0.60 97 1007.0
20260508032342 55 172 3.0 8.0 0.04 0.53 0.53 97 1007.3
20260508031342 55 233 2.0 8.0 0.13 0.52 0.52 97 1007.3
20260508030342 54 15 2.0 9.0 0.22 0.52 0.52 96 1007.5
20260508025342 55 242 4.0 9.0 0.24 0.51 0.51 96 1007.6
20260508024827 54 310 2.0 15.0 0.25 0.50 0.50 96 1007.7
20260508023342 54 180 6.0 11.0 0.29 0.50 0.50 96 1008.0
20260508022342 54 34 2.0 6.0 0.32 0.49 0.49 95 1008.1
20260508021342 54 247 1.0 8.0 0.24 0.39 0.39 95 1008.4
20260508020342 53 122 1.0 7.0 0.16 0.30 0.30 95 1008.4
20260508015342 53 43 1.0 7.0 0.13 0.27 0.27 94 1008.8
20260508014342 54 97 6.0 9.0 0.12 0.25 0.25 94 1009.2
20260508013342 55 24 5.0 8.0 0.08 0.21 0.21 94 1009.2
20260508012342 54 10 1.0 6.0 0.05 0.17 0.17 94 1009.2
20260508011342 55 77 5.0 7.0 0.05 0.15 0.15 93 1009.4
20260508010823 54 43 1.0 4.0 0.04 0.14 0.14 94 1009.6
20260508005342 55 172 2.0 8.0 0.04 0.14 0.14 94 1009.4
20260508004342 55 231 2.0 4.0 0.03 0.13 0.13 93 1009.7
20260508003342 54 80 3.0 4.0 0.04 0.13 0.13 93 1010.1